User: anonymous   Login
Location: Nairn
(57.5833°N, 3.8667°W)
Time: 09:16:01
(UTC+00:00)
Language:

IRAS Rocket - Orbit

View from above orbital plane
View from above orbital plane
View from above satellite
View from above satellite

Ground track
Ground track

The orbit data is extracted from the following two-line orbital elements,

1 13778U 83004B   20293.63815272 -.00000115 +00000-0 -35058-4 0  9995
2 13778 100.0660 072.7289 0021670 118.0133 242.3228 14.09030978938890
Epoch (UTC): 19 October 2020 15:18:56
Eccentricity: 0.0021670
inclination: 100.0660°
perigee height: 847 km
apogee height: 878 km
right ascension of ascending node: 72.7289°
argument of perigee: 118.0133°
revolutions per day: 14.09030978
mean anomaly at epoch: 242.3228°
orbit number at epoch: 93889

The dashed part of the orbit path shows where the satellite is in the earth's shadow,  

DLR